Location: Caltech
(34.1382°N, 118.1253°W)
Time: 03:40:10
(UTC-07:00)

Cosmos 2251 Rocket - Visible Passes

Search period start: 24 July 2014 00:00
Search period end: 03 August 2014 00:00
Orbit: 765 x 794 km, 74.0° (Epoch: 22 July)

Date Brightness Start Highest point End Pass type
(mag) Time Alt. Az. Time Alt. Az. Time Alt. Az.
24 Jul 6.1 01:20:03 11° ENE 01:20:03 11° ENE 01:20:37 10° ENE visible
24 Jul 4.0 03:00:33 53° NW 03:00:33 53° NW 03:05:07 10° N visible
25 Jul 4.3 02:27:41 50° NNE 02:27:41 50° NNE 02:31:36 10° NNE visible
25 Jul 5.8 04:08:12 10° WNW 04:09:11 11° WNW 04:10:15 10° NW visible
26 Jul 5.0 01:54:47 32° NE 01:54:47 32° NE 01:57:52 10° NNE visible
26 Jul 5.4 03:35:18 17° WNW 03:35:18 17° WNW 03:38:47 10° NNW visible
27 Jul 5.7 01:21:52 20° NE 01:21:52 20° NE 01:23:52 10° NE visible
27 Jul 5.0 03:02:22 26° NW 03:02:22 26° NW 03:06:01 10° N visible
28 Jul 6.1 00:48:55 12° ENE 00:48:55 12° ENE 00:49:25 10° NE visible
28 Jul 4.9 02:29:26 34° NNW 02:29:26 34° NNW 02:32:52 10° N visible
29 Jul 5.0 01:56:28 34° N 01:56:28 34° N 01:59:28 10° NNE visible
30 Jul 5.4 01:23:28 27° NNE 01:23:28 27° NNE 01:25:51 10° NNE visible
30 Jul 5.8 03:03:58 13° NW 03:03:58 13° NW 03:05:51 10° NNW visible
31 Jul 5.8 00:50:27 19° NE 00:50:27 19° NE 00:52:01 10° NNE visible
31 Jul 5.6 02:30:57 19° NW 02:30:57 19° NW 02:33:30 10° NNW visible
01 Aug 6.1 00:17:25 12° NE 00:17:25 12° NE 00:17:51 10° NE visible
01 Aug 5.4 01:57:55 24° NNW 01:57:55 24° NNW 02:00:32 10° N visible
02 Aug 5.5 01:24:51 26° N 01:24:51 26° N 01:27:16 10° N visible
